This demonstration page uses our WeatherBlox Daily Observations layout. Learn more.

Left ArrowRight Arrow

41.86663, -103.66717

Hourly Observations for August 24, 2021

Temp ( °F °C ) Dew Point ( °F °C ) Humidity (%) Winds ( mph kmh ) Pressure ( in mb ) Visibility ( mi km ) Precip ( " mm )
12:53 am 00:53 Clear 64 17.8 49 9.4 58 58 undefined N/A 29.77 1008 10 16 N/A
1:53 am 01:53 Clear 65 18.3 48 8.9 54 54 undefined N/A 29.75 1008 10 16 N/A
2:53 am 02:53 Clear 61 16.1 49 9.4 65 65 E 5 7 29.76 1008 10 16 N/A
3:53 am 03:53 Clear 57 13.9 48 8.9 72 72 undefined N/A 29.78 1008 10 16 N/A
4:53 am 04:53 Clear 54 12.2 48 8.9 80 80 undefined N/A 29.80 1009 10 16 N/A
5:53 am 05:53 Clear 54 12.2 48 8.9 80 80 WNW 6 9 29.81 1010 10 16 N/A
6:53 am 06:53 Sunny 57 13.9 49 9.4 74 74 N 3 6 29.84 1011 10 16 N/A
7:53 am 07:53 Sunny 65 18.3 50 10 59 59 NW 5 7 29.85 1011 10 16 N/A
8:53 am 08:53 Sunny 74 23.3 49 9.4 41 41 NW 10 17 29.84 1010 10 16 N/A
9:53 am 09:53 Sunny 79 26.1 47 8.3 32 32 WNW 10 17 29.83 1010 10 16 N/A
10:53 am 10:53 Sunny 85 29.4 48 8.9 28 28 NW 7 11 29.83 1010 10 16 N/A
11:53 am 11:53 Sunny 91 32.8 40 4.4 17 17 VRB 7 11 29.81 1010 10 16 N/A
12:53 pm 12:53 Sunny 96 35.6 38 3.3 13 13 VRB 5 7 29.80 1009 10 16 N/A
1:53 pm 13:53 Sunny 97 36.1 39 3.9 13 13 N N/A 29.80 1009 10 16 N/A
2:53 pm 14:53 Sunny 98 36.7 30 -1.1 9 9 NNW 9 15 29.79 1009 10 16 N/A
3:53 pm 15:53 Sunny 98 36.7 33 0.6 10 10 NW 7 11 29.79 1009 10 16 N/A
4:53 pm 16:53 Sunny 98 36.7 35 1.7 11 11 NW 10 17 29.80 1009 10 16 N/A
5:53 pm 17:53 Sunny 95 35 39 3.9 14 14 NW 9 15 29.81 1010 10 16 N/A
6:53 pm 18:53 Sunny 87 30.6 44 6.7 22 22 NE 15 24 29.85 1011 10 16 N/A
7:53 pm 19:53 Clear 82 27.8 47 8.3 29 29 NE 17 28 29.86 1011 10 16 N/A
8:53 pm 20:53 Clear 79 26.1 46 7.8 31 31 NE 17 28 29.89 1012 10 16 N/A
9:53 pm 21:53 Clear 76 24.4 48 8.9 37 37 NE 21 33 29.92 1013 10 16 N/A
10:53 pm 22:53 Clear 73 22.8 50 10 44 44 ENE 17 28 29.94 1014 10 16 N/A
11:53 pm 23:53 Clear 70 21.1 51 10.6 51 51 E 15 24 29.96 1015 10 16 N/A

Powered by AerisWeather